Date,TemperatureHighF,TemperatureAvgF,TemperatureLowF,DewpointHighF,DewpointAvgF,DewpointLowF,HumidityHigh,HumidityAvg,HumidityLow,PressureMaxIn,PressureMinIn,WindSpeedMaxMPH,WindSpeedAvgMPH,GustSpeedMaxMPH,PrecipitationSumIn
2013-9-1,87,76,68,78,72,68,98,89,64,29.96,29.87,0,0,0,0.02
2013-9-2,90,81,72,76,72,69,96,77,51,29.93,29.83,0,0,0,0.02
2013-9-3,86,78,72,73,71,68,95,79,57,30.05,29.84,0,0,0,0.00
2013-9-4,82,72,62,68,64,60,94,75,53,30.20,30.05,0,0,0,0.01
2013-9-5,86,74,63,69,64,57,97,73,40,30.23,30.11,0,0,0,0.00
2013-9-6,77,68,61,63,57,53,88,70,46,30.35,30.23,0,0,0,0.00
2013-9-7,82,69,57,67,62,56,97,80,55,30.26,30.05,0,0,0,0.00
2013-9-8,88,76,65,72,67,62,96,77,51,30.11,29.98,0,0,0,0.00
2013-9-9,78,72,68,70,65,58,94,81,65,30.30,30.11,0,0,0,0.00
2013-9-10,91,78,67,76,71,66,97,81,58,30.29,30.20,0,0,0,0.00
2013-9-11,91,81,72,77,74,71,97,81,61,30.25,30.11,0,0,0,0.00
2013-9-12,91,79,71,76,72,66,97,80,54,30.11,29.84,1,0,1,0.00
2013-9-13,80,73,63,68,59,49,83,62,35,30.05,29.82,0,0,0,0.00
2013-9-14,70,61,53,55,51,46,91,70,46,30.29,30.05,0,0,0,0.00
2013-9-15,78,64,50,62,56,49,96,76,52,30.36,30.20,0,0,0,0.00
2013-9-16,72,65,60,65,61,56,96,86,62,30.34,30.18,0,0,0,0.00
2013-9-17,70,60,53,57,53,46,94,77,45,30.53,30.34,0,0,0,0.00
2013-9-18,71,59,46,57,51,45,97,78,48,30.47,30.30,0,0,0,0.00
2013-9-19,76,64,54,63,58,52,94,81,61,30.32,30.19,0,0,0,0.00
2013-9-20,77,68,60,68,64,58,96,86,70,30.20,30.06,0,0,0,0.00
2013-9-21,71,68,64,69,66,63,97,95,92,30.06,29.78,0,0,0,0.23
2013-9-22,75,66,59,63,58,52,98,78,47,30.06,29.84,0,0,0,0.10
2013-9-23,70,60,51,56,52,49,93,75,52,30.22,30.06,0,0,0,0.00
2013-9-24,74,62,54,60,56,51,96,81,56,30.23,30.06,0,0,0,0.00
2013-9-25,75,63,53,62,57,52,98,83,53,30.10,30.00,0,0,0,0.00
2013-9-26,76,66,59,59,57,50,93,75,44,30.19,30.02,0,0,0,0.00
2013-9-27,72,63,53,62,58,52,97,84,63,30.34,30.19,0,0,0,0.00
2013-9-28,67,63,58,60,58,56,96,86,71,30.41,30.32,0,0,0,0.00
2013-9-29,73,63,55,59,56,53,96,79,51,30.33,30.17,0,0,0,0.00
2013-9-30,77,64,52,62,57,51,97,80,54,30.22,30.09,0,0,0,0.00